Погода в Савоне

Италия     44°18′14″N   8°28′37″E
темп.,
°C
ветер,
м/с
пор.,
м/с
влажн.,
%
обл.,
%
осадки,
мм/ч
давл.,
гПа
погр.,
м
5 марта, пт
пт501:00+10юз119065 0.9 1018208
04:00+10ююв0291100 0.7 1017192
07:00+11в0188100 1.5 1016157
10:00+12в228180 0.8 1016343
13:00+12юв238189 2.0 1016500
16:00+12в2281100 0.3 1015460
19:00+11всв348995 0.5 1016289
22:00+11св348821 0.1 1018333
6 марта, сб
сб601:00+11св458632 0.7 1020328
04:00+11с338333 0.8 1020258
07:00+10ссз458325 1.4 1023183
10:00+12ссз477369 0.2 1025589
13:00+10ссз697585 0.7 1026711
16:00+10ссз81170100 0.4 1026750
19:00+8ссз8127372 0.2 1027687
22:00+8ссз813718 0.0 1028638
7 марта, вс
вс701:00+8ссз610688 0.0 1028570
04:00+7ссз68690 0.0 1027474
07:00+7ссз67681 0.0 1026343
10:00+9ссз56560 0.0 1025502
13:00+12с34470 0.0 1023685
16:00+12всв22470 0.0 1020515
19:00+11ссз335836 0.0 1020166
22:00+9ссз3462100 0.0 1020146
8 марта, пн
пн801:00+9ссз5562100 0.0 1018189
04:00+9ссз6763100 0.0 1016254
07:00+8ссз6865100 0.0 1016290
10:00+10ссз5756100 0.0 1016571
13:00+13с4750100 0.0 1015814
16:00+13ссз475667 0.0 1013785
19:00+10ссз586533 0.0 1014484
22:00+10ссз69670 0.0 1015400
9 марта, вт
вт901:00+9ссз611670 0.0 1016507
04:00+9ссз611680 0.0 1015495
07:00+8ссз711700 0.0 1016459
10:00+10ссз58590 0.0 1016667
13:00+13ссз57520 0.0 1016917
16:00+13ссз58550 0.0 1015856
19:00+11ссз69620 0.0 1016519
22:00+10ссз68650 0.0 1019448